Location: USNO
(38.9242°N, 77.0663°W)
Time: 03:53:48
(UTC-04:00)

Vanguard 1 - Visible Passes

Search period start: 17 October 2017 00:00
Search period end: 27 October 2017 00:00
Orbit: 650 x 3834 km, 34.3° (Epoch: 15 October)

Date Brightness Start Highest point End Pass type
(mag) Time Alt. Az. Time Alt. Az. Time Alt. Az.
17 Oct 13.8 00:31:04 17° E 00:31:04 17° E 00:35:21 10° E visible
17 Oct 12.6 02:43:46 64° SE 02:43:46 64° SE 03:04:20 10° E visible
17 Oct 12.7 04:56:28 39° W 05:07:46 77° S 05:30:59 10° ESE visible
18 Oct 13.6 00:50:49 23° E 00:50:49 23° E 00:57:36 10° E visible
18 Oct 12.5 03:03:32 72° SSE 03:03:32 72° SSE 03:26:06 10° E visible
18 Oct 12.9 05:16:14 32° W 05:29:28 75° S 05:52:23 10° ESE visible
19 Oct 13.4 01:10:35 29° E 01:10:35 29° E 01:19:38 10° E visible
19 Oct 12.4 03:23:18 75° S 03:24:07 76° S 03:47:51 10° E visible
19 Oct 12.9 05:36:00 26° W 05:51:05 71° SSW 06:13:38 10° ESE visible
20 Oct 13.2 01:30:23 35° E 01:30:23 35° E 01:41:34 10° E visible
20 Oct 12.3 03:43:06 71° SW 03:45:43 77° S 04:09:33 10° E visible
20 Oct 13.0 05:55:48 21° W 06:12:37 66° SSW 06:34:41 10° SE visible
21 Oct 13.0 01:50:11 42° E 01:50:11 42° E 02:03:26 10° E visible
21 Oct 12.4 04:02:55 63° WSW 04:07:21 77° S 04:31:11 10° ESE visible
21 Oct 13.1 06:15:37 16° W 06:34:00 59° SSW 06:55:31 10° SE visible
22 Oct 12.9 02:10:02 49° ESE 02:10:02 49° ESE 02:25:17 10° E visible
22 Oct 12.4 04:22:45 55° WSW 04:28:59 74° S 04:52:41 10° ESE visible
22 Oct 13.2 06:35:28 11° W 06:55:15 52° SSW 07:16:04 10° SE visible
23 Oct 13.9 00:17:11 12° E 00:17:11 12° E 00:18:28 10° E visible
23 Oct 12.7 02:29:55 57° ESE 02:29:55 57° ESE 02:47:07 10° E visible
23 Oct 12.5 04:42:38 47° W 04:50:33 70° SSW 05:14:02 10° ESE visible
23 Oct 13.3 06:56:38 10° W 07:16:22 44° SW 07:36:16 10° SSE visible
24 Oct 13.8 00:37:06 17° E 00:37:06 17° E 00:40:23 10° E visible
24 Oct 12.5 02:49:49 65° ESE 02:49:49 65° ESE 03:08:54 10° E visible
24 Oct 12.7 05:02:33 39° W 05:12:04 65° SSW 05:35:10 10° SE visible
25 Oct 13.6 00:57:03 21° E 00:57:03 21° E 01:02:16 10° E visible
25 Oct 12.4 03:09:46 71° SE 03:09:46 71° SE 03:30:37 10° ESE visible
25 Oct 12.8 05:22:30 33° W 05:33:29 58° SSW 05:56:03 10° SE visible
26 Oct 13.5 01:17:02 26° E 01:17:02 26° E 01:24:08 10° E visible
26 Oct 12.3 03:29:46 72° S 03:29:46 72° S 03:52:13 10° ESE visible
26 Oct 12.9 05:42:30 27° W 05:54:47 51° SSW 06:16:37 10° SE visible
